This demonstration page uses our WeatherBlox Daily Observations layout. Learn more.

Left ArrowRight Arrow

41.55636, -103.73856

Hourly Observations for December 5, 2017

Temp ( °F °C ) Dew Point ( °F °C ) Humidity (%) Winds ( mph kmh ) Pressure ( in mb ) Visibility ( mi km ) Precip ( " mm )
12:53 am 00:53 Cloudy 20 -6.7 10 -12.2 65 65 W 7 11 30.26 1025 10 16 N/A
1:53 am 01:53 Mostly Cloudy 21 -6.1 10 -12.2 62 62 WNW 10 17 30.28 1025 10 16 N/A
2:53 am 02:53 Mostly Cloudy 17 -8.3 10 -12.2 74 74 WNW 6 9 30.28 1026 10 16 N/A
3:53 am 03:53 Clear 13 -10.6 7 -13.9 77 77 N 6 9 30.32 1027 10 16 N/A
4:53 am 04:53 Clear 11 -11.7 6 -14.4 81 81 NNW 3 6 30.35 1028 10 16 N/A
5:53 am 05:53 Clear 11 -11.7 5 -15 77 77 N 6 9 30.39 1029 10 16 N/A
6:53 am 06:53 Clear 11 -11.7 5 -15 77 77 W 3 6 30.39 1029 10 16 N/A
7:53 am 07:53 Sunny 15 -9.4 8 -13.3 74 74 NNW 5 7 30.40 1029 10 16 N/A
8:53 am 08:53 Sunny 23 -5 11 -11.7 60 60 WNW 9 15 30.37 1029 10 16 N/A
9:53 am 09:53 Sunny 32 undefined 11 -11.7 41 41 WNW 18 30 30.32 1027 10 16 N/A
10:53 am 10:53 Sunny 39 3.9 10 -12.2 30 30 WNW 20 31 30.26 1025 10 16 N/A
11:53 am 11:53 Sunny 41 5 10 -12.2 28 28 WNW 18 30 30.25 1024 10 16 N/A
12:53 pm 12:53 Sunny 43 6.1 9 -12.8 25 25 NW 22 35 30.22 1023 10 16 N/A
1:53 pm 13:53 Sunny 42 5.6 10 -12.2 27 27 WNW 24 39 30.22 1023 10 16 N/A
2:53 pm 14:53 Sunny 43 6.1 12 -11.1 28 28 WNW 23 37 30.24 1024 10 16 N/A
3:53 pm 15:53 Sunny 40 4.4 12 -11.1 32 32 NW 23 37 30.28 1025 10 16 N/A
4:53 pm 16:53 Clear 37 2.8 13 -10.6 37 37 WNW 17 28 30.32 1027 10 16 N/A
5:53 pm 17:53 Clear 34 1.1 14 -10 44 44 W 15 24 30.33 1027 10 16 N/A
6:53 pm 18:53 Clear 33 0.6 14 -10 45 45 W 16 26 30.35 1028 10 16 N/A
7:53 pm 19:53 Mostly Cloudy 32 undefined 14 -10 47 47 WNW 13 20 30.37 1028 10 16 N/A
8:53 pm 20:53 Cloudy 32 undefined 15 -9.4 50 50 NW 12 19 30.36 1028 10 16 N/A
9:53 pm 21:53 Cloudy 33 0.6 16 -8.9 49 49 WNW 12 19 30.34 1028 10 16 N/A
10:53 pm 22:53 Cloudy 33 0.6 16 -8.9 49 49 WNW 9 15 30.33 1027 10 16 N/A
11:53 pm 23:53 Mostly Cloudy 34 1.1 15 -9.4 46 46 WNW 14 22 30.34 1027 10 16 N/A

Powered by AerisWeather